STARLINK-11308, 61246

Orbit data source: Space-Track

STARLINK-11308, 61246 is a payload satellite owned by SpaceX/Seattle (US) in LEO that was launched on Wed, 25 Sep 2024 UTC via an FALCON 9 launch vehicle from the Air Force Western Test Range (AFWTR). Payload-class satellites include a variety of spacecraft equipped with specific instruments for various scientific and technological missions. These include communications satellites like Starlink; space stations such as the ISS; scientific satellites like the Hubble; Earth observation satellites from companies like Planet Labs, Umbra, and HawkEye 360; GPS; miniature CubeSats for education and research; and military/defense satellites.

Loading next visibility...
Identifier
61246, 2024-175D
Orbit
LEO
Last TLE update
1 day ago
Origin
Manufacturer
SpaceX/Seattle
Mission
Operational Commercial Communications
Bus & Motor
STARLINK V2M, Unknown motor
Mass
730 kg wet, ~700 kg dry
Launch date (UTC)
2024-09-25 (7 months ago)
Launch vehicle
FALCON 9
Launch site
Air Force Western Test Range (AFWTR)
Object type
Payload
Rocket body
Debris
Shape & HBR
Box + 2 Pan, 29 m
Radar Cross Section
36.964 m², Large (>1 m²)

Expand to show TLE details & history

TLE from 1 day ago
0 STARLINK-11308
1 61246U 24175D   25128.24211948  .00000248  00000-0  69127-5 0  9991
2 61246  53.1591 121.9307 0001456  61.6260 298.4905 15.69706130 35390
Epoch: 2025-05-08T05:48Z
Definitive object data (Epoch: 2025-05-08T05:48:39.123Z)
Latitude
0.00003°
Longitude
168.45228°
Altitude
360.185 km
Speed
7.695 km/s
True Right ascension
08h 07m 43s
True Declination
0° 00' 00"
Sunlit
Object was in daylight at TLE epoch
Visualization TLE readout
Latitude
13.65592°
Longitude
173.84231°
Altitude
359.237 km
Speed
7.696 km/s
Apparent Right ascension
06h 01m 53s
Apparent Declination
-16° 57' 10"
Sunlit
Object is in daylight
Visualization observer readout
Local Sidereal Time
14:28:45
Azimuth
280.586° WNW
Elevation
-38.734°
Doppler factor
1
Orbital elements
Apogee altitude
360.98 km
Perigee altitude
359.018 km
Semi-major axis
6,738.136 km
Eccentricity
0.0001456
Inclination
53.1591°
RAAN
121.9307°
Arg. of periapsis
61.626°
True anomaly
298.47583°
Mean anomaly
298.4905°
Eccentric anomaly
298.48317°
Mean motion
3.92404 °/min
BSTAR
0.0000069127
Orbital period
91.74 mins
Loading maneuver chart data...
Loading SW <> Apogee altitude chart data...
Loading historical data...
Loading historical data...
Loading historical data...
Loading historical data...
Loading historical data...
Loading historical data...
Loading historical data...

STARLINK-11308 Visibility forecast

Observer location: undefined°, undefined°

Span
Click to sort rows by Start time (UTC) header in descending order
Start Az.
Max El. time (UTC)
Max El. Az.
Max El.
End time (UTC)
End Az.
4 mins2025-05-09 08:15:56.057Z337.122° NNW2025-05-09 08:17:56.057Z39.129° NE26.675°2025-05-09 08:19:56.057Z92.271° ESE
|